This is the latest recevied weather packets stored in our database for station/object OK1FET-5. If no packets are shown the sender has not sent any weather packets the latest 10 day(s).
| Time | Temp. | Humidity | Pressure | Rain* | Wind** | Luminosity | Snow |
|---|---|---|---|---|---|---|---|
| 1777647983 | 25° C | 32% | 1026.6 hPa | - | - | - | - |
| 1777647689 | 25.56° C | 32% | 1026.7 hPa | - | - | - | - |
| 1777647391 | 26.67° C | 32% | 1026.7 hPa | - | - | - | - |
| 1777645911 | 27.22° C | 31% | 1026.8 hPa | - | - | - | - |
| 1777645615 | 26.67° C | 31% | 1026.9 hPa | - | - | - | - |
| 1777645319 | 26.67° C | 30% | 1026.9 hPa | - | - | - | - |
| 1777645023 | 26.67° C | 30% | 1027 hPa | - | - | - | - |
| 1777644727 | 27.22° C | 30% | 1027.1 hPa | - | - | - | - |
| 1777644432 | 26.67° C | 31% | 1027.1 hPa | - | - | - | - |
| 1777644135 | 26.67° C | 32% | 1027 hPa | - | - | - | - |
| 1777643839 | 26.67° C | 32% | 1027.2 hPa | - | - | - | - |
| 1777643543 | 27.78° C | 32% | 1027.2 hPa | - | - | - | - |
| 1777643247 | 27.22° C | 32% | 1027.3 hPa | - | - | - | - |
| 1777642655 | 27.22° C | 31% | 1027.3 hPa | - | - | - | - |
| 1777642359 | 27.22° C | 32% | 1027.4 hPa | - | - | - | - |
| 1777642063 | 27.22° C | 32% | 1027.4 hPa | - | - | - | - |
| 1777641767 | 27.22° C | 32% | 1027.5 hPa | - | - | - | - |
| 1777641471 | 26.67° C | 30% | 1027.4 hPa | - | - | - | - |
| 1777641175 | 27.78° C | 30% | 1027.6 hPa | - | - | - | - |
| 1777640583 | 27.22° C | 30% | 1027.7 hPa | - | - | - | - |
| 1777640287 | 27.22° C | 31% | 1027.7 hPa | - | - | - | - |
| 1777639399 | 26.67° C | 30% | 1028 hPa | - | - | - | - |
| 1777638807 | 26.67° C | 32% | 1028.2 hPa | - | - | - | - |
| 1777638215 | 26.67° C | 31% | 1028.3 hPa | - | - | - | - |
| 1777637327 | 25° C | 32% | 1028.4 hPa | - | - | - | - |
* Rain since midnight (hover to see other rain measurements)
** Current wind speed in m/s (hover to see current wind gust speed)